TimeEDT,TemperatureF,Dew PointF,Humidity,Sea Level PressureIn,VisibilityMPH,Wind Direction,Wind SpeedMPH,Gust SpeedMPH,PrecipitationIn,Events,Conditions,WindDirDegrees,DateUTC
12:15 AM,59.0,59.0,100,29.88,5.0,Calm,Calm,-,N/A,,Clear,0,2012-10-18 04:15:00
12:35 AM,59.0,59.0,100,29.87,2.0,Calm,Calm,-,N/A,,Clear,0,2012-10-18 04:35:00
12:55 AM,59.0,57.2,94,29.87,7.0,Calm,Calm,-,N/A,,Clear,0,2012-10-18 04:55:00
1:15 AM,57.2,57.2,100,29.86,7.0,Calm,Calm,-,N/A,,Clear,0,2012-10-18 05:15:00
1:35 AM,57.2,57.2,100,29.86,4.0,Calm,Calm,-,N/A,,Clear,0,2012-10-18 05:35:00
1:55 AM,57.2,57.2,100,29.84,2.5,Calm,Calm,-,N/A,,Clear,0,2012-10-18 05:55:00
2:15 AM,57.2,57.2,100,29.84,5.0,Calm,Calm,-,N/A,,Scattered Clouds,0,2012-10-18 06:15:00
2:35 AM,57.2,57.2,100,29.84,5.0,Calm,Calm,-,N/A,,Scattered Clouds,0,2012-10-18 06:35:00
2:55 AM,57.2,57.2,100,29.84,7.0,Calm,Calm,-,N/A,,Mostly Cloudy,0,2012-10-18 06:55:00
3:15 AM,59.0,57.2,94,29.84,7.0,Calm,Calm,-,N/A,,Mostly Cloudy,0,2012-10-18 07:15:00
3:35 AM,59.0,59.0,100,29.84,5.0,Calm,Calm,-,N/A,,Clear,0,2012-10-18 07:35:00
3:55 AM,57.2,57.2,100,29.83,7.0,Calm,Calm,-,N/A,,Clear,0,2012-10-18 07:55:00
4:15 AM,57.2,57.2,100,29.83,5.0,Calm,Calm,-,N/A,,Clear,0,2012-10-18 08:15:00
4:35 AM,57.2,57.2,100,29.83,4.0,Calm,Calm,-,N/A,,Clear,0,2012-10-18 08:35:00
4:55 AM,57.2,57.2,100,29.82,4.0,Calm,Calm,-,N/A,,Clear,0,2012-10-18 08:55:00
5:15 AM,57.2,57.2,100,29.83,5.0,Calm,Calm,-,N/A,,Clear,0,2012-10-18 09:15:00
5:55 AM,55.4,55.4,100,29.84,5.0,Calm,Calm,-,N/A,,Clear,0,2012-10-18 09:55:00
6:15 AM,57.2,57.2,100,29.84,5.0,Calm,Calm,-,N/A,,Scattered Clouds,0,2012-10-18 10:15:00
6:35 AM,57.2,55.4,94,29.85,7.0,Calm,Calm,-,N/A,,Mostly Cloudy,0,2012-10-18 10:35:00
6:55 AM,57.2,57.2,100,29.87,7.0,Calm,Calm,-,N/A,,Overcast,0,2012-10-18 10:55:00
7:15 AM,60.8,59.0,94,29.86,7.0,Calm,Calm,-,N/A,,Overcast,0,2012-10-18 11:15:00
7:35 AM,60.8,60.8,100,29.87,7.0,Calm,Calm,-,N/A,,Overcast,0,2012-10-18 11:35:00
7:55 AM,60.8,60.8,100,29.86,0.5,Calm,Calm,-,N/A,,Overcast,0,2012-10-18 11:55:00
8:15 AM,62.6,62.6,100,29.87,0.5,Calm,Calm,-,N/A,,Overcast,0,2012-10-18 12:15:00
8:35 AM,64.4,64.4,100,29.87,0.2,Calm,Calm,-,N/A,,Overcast,0,2012-10-18 12:35:00
8:55 AM,64.4,64.4,100,29.87,0.5,Calm,Calm,-,N/A,,Overcast,0,2012-10-18 12:55:00
9:35 AM,66.2,66.2,100,29.88,0.5,SSW,3.5,-,N/A,,Overcast,210,2012-10-18 13:35:00
10:15 AM,66.2,66.2,100,29.87,1.0,Calm,Calm,-,N/A,,Overcast,0,2012-10-18 14:15:00
10:35 AM,68.0,66.2,94,29.88,3.0,SSW,4.6,-,N/A,,Overcast,200,2012-10-18 14:35:00
11:15 AM,69.8,66.2,88,29.88,10.0,SW,6.9,-,N/A,,Overcast,220,2012-10-18 15:15:00
11:35 AM,69.8,66.2,88,29.88,10.0,SW,4.6,-,N/A,,Overcast,220,2012-10-18 15:35:00
11:55 AM,73.4,68.0,83,29.87,10.0,WSW,6.9,-,N/A,,Overcast,250,2012-10-18 15:55:00
12:15 PM,73.4,66.2,78,29.86,10.0,SW,6.9,-,N/A,,Scattered Clouds,230,2012-10-18 16:15:00
12:35 PM,77.0,66.2,69,29.85,10.0,SW,4.6,-,N/A,,Clear,220,2012-10-18 16:35:00
12:55 PM,78.8,66.2,65,29.84,10.0,South,8.1,-,N/A,,Clear,190,2012-10-18 16:55:00
1:15 PM,78.8,64.4,61,29.84,10.0,SSW,4.6,-,N/A,,Clear,200,2012-10-18 17:15:00
1:35 PM,80.6,66.2,61,29.82,10.0,WSW,6.9,-,N/A,,Clear,240,2012-10-18 17:35:00
1:55 PM,80.6,64.4,58,29.80,10.0,SSW,4.6,-,N/A,,Clear,200,2012-10-18 17:55:00
2:35 PM,82.4,66.2,58,29.79,10.0,SW,9.2,-,N/A,,Clear,230,2012-10-18 18:35:00
2:55 PM,82.4,66.2,58,29.79,10.0,SSW,9.2,-,N/A,,Clear,200,2012-10-18 18:55:00
3:15 PM,80.6,66.2,61,29.79,10.0,SSW,10.4,-,N/A,,Scattered Clouds,210,2012-10-18 19:15:00
3:35 PM,80.6,66.2,61,29.79,10.0,SW,9.2,-,N/A,,Clear,220,2012-10-18 19:35:00
3:55 PM,82.4,66.2,58,29.79,10.0,SW,8.1,-,N/A,,Clear,220,2012-10-18 19:55:00
4:15 PM,80.6,66.2,61,29.79,10.0,WSW,9.2,-,N/A,,Clear,250,2012-10-18 20:15:00
4:35 PM,80.6,64.4,58,29.79,10.0,WSW,6.9,-,N/A,,Clear,250,2012-10-18 20:35:00
4:55 PM,80.6,64.4,58,29.79,10.0,WSW,5.8,-,N/A,,Clear,240,2012-10-18 20:55:00
5:15 PM,80.6,66.2,61,29.79,10.0,SW,4.6,-,N/A,,Clear,220,2012-10-18 21:15:00
5:35 PM,80.6,66.2,61,29.79,10.0,Calm,Calm,-,N/A,,Clear,0,2012-10-18 21:35:00
5:55 PM,78.8,66.2,65,29.79,10.0,Calm,Calm,-,N/A,,Clear,0,2012-10-18 21:55:00
6:15 PM,78.8,68.0,69,29.79,10.0,Calm,Calm,-,N/A,,Clear,0,2012-10-18 22:15:00
6:35 PM,77.0,68.0,74,29.80,10.0,Calm,Calm,-,N/A,,Clear,0,2012-10-18 22:35:00
6:55 PM,75.2,68.0,78,29.81,10.0,Calm,Calm,-,N/A,,Scattered Clouds,0,2012-10-18 22:55:00
7:15 PM,75.2,66.2,73,29.82,10.0,WSW,3.5,-,N/A,,Scattered Clouds,250,2012-10-18 23:15:00
7:35 PM,73.4,66.2,78,29.82,10.0,WSW,3.5,-,N/A,,Scattered Clouds,250,2012-10-18 23:35:00
7:55 PM,73.4,68.0,83,29.81,10.0,Calm,Calm,-,N/A,,Scattered Clouds,0,2012-10-18 23:55:00
8:15 PM,73.4,66.2,78,29.82,10.0,Calm,Calm,-,N/A,,Mostly Cloudy,0,2012-10-19 00:15:00
8:35 PM,73.4,66.2,78,29.83,10.0,Calm,Calm,-,N/A,,Mostly Cloudy,0,2012-10-19 00:35:00
8:55 PM,71.6,68.0,88,29.83,10.0,Calm,Calm,-,N/A,,Mostly Cloudy,0,2012-10-19 00:55:00
9:15 PM,71.6,68.0,88,29.84,10.0,Calm,Calm,-,N/A,,Overcast,0,2012-10-19 01:15:00
9:35 PM,71.6,68.0,88,29.84,10.0,Calm,Calm,-,N/A,,Overcast,0,2012-10-19 01:35:00
9:55 PM,71.6,68.0,88,29.84,10.0,Calm,Calm,-,N/A,,Overcast,0,2012-10-19 01:55:00
10:15 PM,71.6,68.0,88,29.84,10.0,Calm,Calm,-,N/A,,Overcast,0,2012-10-19 02:15:00
10:35 PM,69.8,68.0,94,29.84,10.0,South,4.6,-,N/A,,Overcast,180,2012-10-19 02:35:00
10:55 PM,71.6,66.2,83,29.84,10.0,Calm,Calm,-,N/A,,Overcast,0,2012-10-19 02:55:00
11:15 PM,69.8,66.2,88,29.84,10.0,Calm,Calm,-,N/A,,Overcast,0,2012-10-19 03:15:00
11:35 PM,69.8,66.2,88,29.83,10.0,Calm,Calm,-,N/A,,Overcast,0,2012-10-19 03:35:00
11:55 PM,69.8,66.2,88,29.83,10.0,Calm,Calm,-,N/A,,Overcast,0,2012-10-19 03:55:00